Location: *
(32.3300°N, 34.8500°E)
Time: 01:12:00
(UTC+00:00)

CZ-2C R/B - Pass Details

Date: 22 October 2019
Orbit: 668 x 784 km, 98.1° (Epoch: 18 November)

Event Time Altitude Azimuth Distance (km) Brightness Sun altitude
Rises 02:41:01 0° 1° (N) 3,274 5.7 -15.1°
Reaches altitude 10° 02:43:32 10° 352° (N) 2,337 4.9 -14.6°
Maximum altitude 02:48:08 34° 289° (WNW) 1,255 3.1 -13.6°
Drops below altitude 10° 02:52:39 10° 225° (SW) 2,284 4.6 -12.6°
Sets 02:55:06 0° 216° (SW) 3,189 5.4 -12.1°
